Find Starlink 34505

NORAD ID: 64490 Int'l Des: 2025-133 Owner: SPXS Country: US Constellation: starlink operational
LEOCIRCULAR

Current View

Loading 3D Globe...

About Starlink 34505

Starlink 34505 (NORAD 64490) is a starlink constellation satellite (v2 mini) launched Jun 23, 2025 by SPXS of US. It operates in LEO, CIRCULAR orbit with a mass of 575.00 kg.

Upcoming Passes

Passes for default location (London). Set your location on the main map for personalized predictions.

Altitude History

Loading altitude history...

Two-Line Element Set

1 64490U 25133U 26225.94361449 .00007445 00000-0 26311-3 0 9990
2 64490 53.1581 106.4361 0001274 94.7828 265.3318 15.30216037 65244
Epoch: Aug 13, 2026 • Age: 20 hours

Current Status

Altitude 476.2 km
Apogee / Perigee N/A
Velocity 7.63 km/s
Sub-Earth Point -0.59°S, 146.48°W
Launch Date Jun 23, 2025
Age 1.1 years
Type internet

Technical Details

Classification Payload
Mass 575.00 kg
Dry Mass 530.00 kg
Total Mass 575.00 kg
Length 0.30 m
Diameter 4.10 m
Span 29.00 m
Shape Box + pan
Manufacturer SPXS
Bus Type Starlink V2MO
Phase Status In Orbit
Owner/State SPXS/US

Most Searched